Miscellaneous Local Product
Issued by NWS North Platte, NE

Home | Current Version | Previous Version | Text Only | Print | Product List | Glossary On
Versions: 1 2 3 4 5 6 7 8 9 10 11 12 13 14 15 16 17 18 19 20 21 22 23 24 25 26 27 28 29 30 31 32 33 34 35 36 37 38 39 40 41 42 43 44 45 46 47 48 49 50
000
AXUS43 KLBF 272110
MISLBF


WESTERN AND NORTH CENTRAL NEBRASKA HOURLY WEATHER ROUNDUP
NATIONAL WEATHER SERVICE NORTH PLATTE NE
400 PM CDT FRI MAR 27 2015

***STATIONS NOT REPORTING VARIABLES SUCH AS SKY/WEATHER OR
PRESSURE ARE PROVIDED BY THE NEBRASKA DEPARTMENT OF
ROADS...RAWS...AND APRS NETWORKS...AND ARE NOT UNDER
NATIONAL WEATHER SERVICE QUALITY CONTROL***

...OBSERVATIONS IN AND NEAR THE EASTERN PANHANDLE OF NEBRASKA...

CITY           SKY/WX    TMP DP  RH WIND       PRES   REMARKS
PINE RIDGE     PTSUNNY   65  35  33 N14G22    29.94F
CHADRON        MOSUNNY   69  38  32 NW21G29   29.96F
ALLIANCE       MOSUNNY   69  34  27 NW23G38   29.97F
SIDNEY         MOSUNNY   68  34  28 NW25G33   30.02F
WHITECLAY        N/A     67  37  33 W20         N/A
CRESCENT LAKE    N/A     67  35  30 NW18G29     N/A
BIG SPRINGS      N/A     66  40  38 NW12        N/A
$$

...OBSERVATIONS IN NORTH CENTRAL NEBRASKA...

CITY           SKY/WX    TMP DP  RH WIND       PRES   REMARKS
VALENTINE      CLOUDY    58  38  47 W5        29.93F
THEDFORD       CLOUDY    64  37  37 N15G22    29.93F
AINSWORTH      CLOUDY    53  36  54 S13       29.95S
O`NEILL        CLOUDY    36  33  88 S17G24    30.03F WCI  26
ORD            CLOUDY    39  26  59 SE15G21   30.05F WCI  31
BROKEN BOW     CLOUDY    48  34  58 S18G26    30.00F
BROWNLEE         N/A     62  37  38 N15         N/A
SPRINGVIEW       N/A     52  36  55 SW8G16      N/A
BREWSTER         N/A     48  34  60 S13         N/A
ROSE             N/A     48  34  58 SE13        N/A
NEWPORT          N/A     43  30  61 S16         N/A
SARGENT          N/A     46  34  63 SW6G17      N/A
COMSTOCK         N/A     46  30  53 S13         N/A
EWING            N/A     32  30  94 S7          N/A  WCI  26
$$

...OBSERVATIONS IN SOUTHWEST NEBRASKA AND FAR NORTHEAST COLORADO...

CITY           SKY/WX    TMP DP  RH WIND       PRES   REMARKS
WRAY           MOCLDY    69  33  26 NW18G24   30.02F
HOLYOKE        FAIR      72  36  26 N22G28    30.01F
IMPERIAL         N/A     69  35  28 NW21G33   29.99F
OGALLALA       CLOUDY    68  35  29 N16       29.97F
NORTH PLATTE   SUNNY     62  39  42 SW10      29.96F
MCCOOK         SUNNY     64  36  35 SW12      30.00F
LEXINGTON      PTSUNNY   53  34  49 SW15G21   30.04F
PAXTON           N/A     64  43  45 W5          N/A
SUTHERLAND       N/A     65  35  31 W10         N/A
BRADY            N/A     58  39  50 CALM        N/A
GOTHENBURG       N/A     50  33  53 SW6         N/A
CALLAWAY         N/A     49  37  64 SW14        N/A
$$

...NORTH PLATTE AREA...

CITY           SKY/WX    TMP DP  RH WIND       PRES   REMARKS
AIRPORT        SUNNY     62  39  42 SW10      29.96F
DOWNTOWN         N/A     64  40  42 SW3         N/A
$$

...SOME WEATHER OBSERVATIONS FROM AROUND THE REGION...

CITY           SKY/WX    TMP DP  RH WIND       PRES   REMARKS
DENVER         MOSUNNY   67  29  24 VRB3      30.10F
LARAMIE        MOSUNNY   60  24  25 NW26G40   30.17F
CHEYENNE       MOSUNNY   63  26  24 NW30G40   30.10F
SCOTTSBLUFF    MOSUNNY   71  33  24 NW28G36   29.99F
RAPID CITY     PTSUNNY   67  36  31 N24G35    29.93F
PIERRE         SUNNY     48  34  58 SE14      29.93F
WINNER         FAIR      54  33  45 S13       29.93F
SIOUX FALLS    CLOUDY    36  11  35 S8        30.11F WCI  30
OMAHA          CLOUDY    40  12  32 CALM      30.16F
GRAND ISLAND   CLOUDY    37  26  64 S10       30.12F WCI  30
KANSAS CITY    CLOUDY    43  20  39 VRB6      30.15F
WICHITA        CLOUDY    50  28  42 VRB3      30.17F
HAYS           MOSUNNY   52  27  37 S8G17     30.13F
LIBERAL        SUNNY     61  34  36 SW12G20   30.14F
GOODLAND       CLOUDY    65  34  31 NW20G28   30.03F
$$



USA.gov is the U.S. government's official web portal to all federal, state and local government web resources and services.